HULIANWAN GAOGUI-02 (H*)

Last updated on Wed May 21 2025 00:02:46 GMT+0000 (Coordinated Universal Time)

1 60327U 24135A 25140.19246044 -.00000164 00000+0 00000+0 0 9995 2 60327 0.0034 130.3079 0000916 277.1713 53.0649 1.00269196 3569
UTC large
Height (km)
Speed (km/s)
/
Latitude / Longitude
Inclination (degrees)
Orbital Period (minutes)
Azimuth
Elevation
Range (km)
Doppler Factor

Next 0 passes for location: London (51.5072 / 0.1276)

Sorry there are no passes over London.